User: anonymous   Login
Location: Fouquenies
(49.4624°N, 2.0492°E)
Time: 19:08:54
(UTC+00:00)
Language:

CZ-6A DEB - Orbit

View from above orbital plane
View from above orbital plane
View from above satellite
View from above satellite

Ground track
Ground track

The orbit data is extracted from the following two-line orbital elements,

1 56254U 22151ABW 23336.34366546  .00683016  00000-0  66982-1 0  9993
2 56254  98.7084   6.9457 0091074 180.4414 179.6734 14.86612349 37779
Epoch (UTC): 02 December 2023 08:14:52
Eccentricity: 0.0091074
inclination: 98.7084°
perigee height: 545 km
apogee height: 672 km
right ascension of ascending node: 6.9457°
argument of perigee: 180.4414°
revolutions per day: 14.86612349
mean anomaly at epoch: 179.6734°
orbit number at epoch: 3777

The dashed part of the orbit path shows where the satellite is in the earth's shadow,  

DLR